RYR1QD LFOB-EGCC

Flight info

Callsign RYR1QD
Flight time 0h 55m
Altitude 32000
Route VESAN DCT RATUK DCT SOVAT L613 SANDY UN57 WELIN T420 ELVOS
Aircraft B738/M-SDE2E3FGHIRWXY/LB1

Departure

Time 2026-05-05 18:33
Airport Beauvais-Tillé airport (LFOB)

Arrival

Time 2026-05-05 19:28
Airport Manchester Airport (EGCC)
Time Latitude Longitude Altitude Speed Heading
2026-05-05 18:18 49.45823 2.11098 332 ft 0 kts 34°
2026-05-05 18:25 49.45813 2.11088 335 ft 4 kts 33°
2026-05-05 18:25 49.45806 2.11081 335 ft 4 kts 28°
2026-05-05 18:25 49.45768 2.11082 334 ft 4 kts 314°
2026-05-05 18:25 49.45759 2.11098 336 ft 1 kts 304°
2026-05-05 18:26 49.45758 2.11100 334 ft 1 kts 304°
2026-05-05 18:29 49.45768 2.11078 336 ft 7 kts 305°
2026-05-05 18:30 49.45789 2.10993 335 ft 1 kts 249°
2026-05-05 18:30 49.45782 2.10979 336 ft 3 kts 233°
2026-05-05 18:30 49.45769 2.10964 336 ft 0 kts 213°
2026-05-05 18:31 49.45768 2.10963 336 ft 1 kts 213°
2026-05-05 18:31 49.45748 2.10944 335 ft 6 kts 211°
2026-05-05 18:31 49.45716 2.10916 334 ft 9 kts 208°
2026-05-05 18:31 49.45654 2.10864 333 ft 10 kts 208°
2026-05-05 18:32 49.45625 2.10865 337 ft 2 kts 146°
2026-05-05 18:32 49.45617 2.10878 336 ft 0 kts 130°
2026-05-05 18:32 49.45535 2.11059 338 ft 54 kts 124°
2026-05-05 18:32 49.45199 2.11829 352 ft 118 kts 124°
2026-05-05 18:33 49.44648 2.13118 390 ft 166 kts 122°
2026-05-05 18:33 49.44042 2.14674 1004 ft 173 kts 108°
2026-05-05 18:33 49.44090 2.16546 1530 ft 184 kts 65°
2026-05-05 18:33 49.44729 2.18294 2227 ft 196 kts 53°
2026-05-05 18:34 49.45836 2.19669 2503 ft 218 kts 21°
2026-05-05 18:34 49.47361 2.19951 3061 ft 227 kts 354°
2026-05-05 18:34 49.48899 2.19166 3520 ft 247 kts 331°
2026-05-05 18:34 49.50364 2.17665 4175 ft 257 kts 329°
2026-05-05 18:35 49.51858 2.16115 5051 ft 260 kts 330°
2026-05-05 18:35 49.53528 2.15134 5849 ft 259 kts 355°
2026-05-05 18:35 49.55335 2.14905 6682 ft 262 kts 358°
2026-05-05 18:35 49.57168 2.14695 7467 ft 267 kts 358°
2026-05-05 18:36 49.59038 2.14464 8226 ft 272 kts 357°
2026-05-05 18:36 49.60937 2.14216 8983 ft 277 kts 357°
2026-05-05 18:36 49.62848 2.13958 9721 ft 281 kts 356°
2026-05-05 18:36 49.64826 2.13686 10307 ft 294 kts 356°
2026-05-05 18:37 49.66950 2.13383 10490 ft 318 kts 356°
2026-05-05 18:37 49.69234 2.13050 10714 ft 339 kts 356°
2026-05-05 18:37 49.71621 2.12694 11248 ft 349 kts 355°
2026-05-05 18:37 49.74048 2.12327 11966 ft 352 kts 355°
2026-05-05 18:38 49.76496 2.11956 12729 ft 355 kts 355°
2026-05-05 18:38 49.78973 2.11579 13342 ft 361 kts 355°
2026-05-05 18:38 49.81496 2.11194 13952 ft 367 kts 355°
2026-05-05 18:38 49.84052 2.10803 14570 ft 371 kts 354°
2026-05-05 18:39 49.86638 2.10410 15180 ft 376 kts 355°
2026-05-05 18:39 49.89253 2.10008 15787 ft 380 kts 355°
2026-05-05 18:39 49.91904 2.09603 16371 ft 385 kts 354°
2026-05-05 18:39 49.94591 2.09193 16855 ft 392 kts 354°
2026-05-05 18:40 49.97288 2.08778 17390 ft 397 kts 354°
2026-05-05 18:40 50.00048 2.08353 17969 ft 401 kts 354°
2026-05-05 18:40 50.02836 2.07923 18519 ft 405 kts 354°
2026-05-05 18:40 50.05653 2.07490 19061 ft 408 kts 354°
2026-05-05 18:41 50.08458 2.06778 19604 ft 411 kts 344°
2026-05-05 18:41 50.11137 2.05216 20187 ft 412 kts 334°
2026-05-05 18:41 50.13654 2.03054 20740 ft 414 kts 325°
2026-05-05 18:41 50.15980 2.00380 21229 ft 417 kts 322°
2026-05-05 18:42 50.18276 1.97579 21683 ft 421 kts 321°
2026-05-05 18:42 50.20576 1.94721 22135 ft 424 kts 321°
2026-05-05 18:42 50.22890 1.91843 22597 ft 427 kts 321°
2026-05-05 18:42 50.25228 1.88945 23030 ft 430 kts 321°
2026-05-05 18:43 50.27584 1.86041 23474 ft 432 kts 321°
2026-05-05 18:43 50.29956 1.83130 23913 ft 435 kts 322°
2026-05-05 18:43 50.32349 1.80202 24318 ft 438 kts 322°
2026-05-05 18:43 50.34759 1.77252 24710 ft 441 kts 322°
2026-05-05 18:44 50.37183 1.74286 25070 ft 444 kts 322°
2026-05-05 18:44 50.39631 1.71290 25443 ft 447 kts 322°
2026-05-05 18:44 50.42088 1.68277 25815 ft 450 kts 322°
2026-05-05 18:44 50.44527 1.65281 26155 ft 452 kts 322°
2026-05-05 18:45 50.47013 1.62224 26487 ft 455 kts 322°
2026-05-05 18:45 50.49511 1.59147 26830 ft 458 kts 321°
2026-05-05 18:45 50.52019 1.56053 27150 ft 460 kts 321°
2026-05-05 18:45 50.54548 1.52929 27445 ft 463 kts 321°
2026-05-05 18:46 50.57083 1.49792 27766 ft 465 kts 321°
2026-05-05 18:46 50.59628 1.46640 28080 ft 467 kts 321°
2026-05-05 18:46 50.62192 1.43458 28386 ft 469 kts 321°
2026-05-05 18:46 50.64753 1.40276 28808 ft 468 kts 321°
2026-05-05 18:47 50.67269 1.37148 29242 ft 466 kts 321°
2026-05-05 18:47 50.69814 1.33978 29622 ft 465 kts 321°
2026-05-05 18:47 50.72352 1.30810 29988 ft 465 kts 321°
2026-05-05 18:47 50.74891 1.27637 30302 ft 466 kts 321°
2026-05-05 18:48 50.77428 1.24463 30682 ft 464 kts 321°
2026-05-05 18:48 50.79947 1.21305 31128 ft 461 kts 321°
2026-05-05 18:48 50.82450 1.18165 31537 ft 459 kts 321°
2026-05-05 18:48 50.84955 1.15018 31871 ft 458 kts 320°
2026-05-05 18:49 50.89985 1.08682 31930 ft 464 kts 320°
2026-05-05 18:49 50.95012 1.02333 31926 ft 457 kts 320°
2026-05-05 18:50 50.99926 0.96110 31949 ft 455 kts 320°
2026-05-05 18:50 51.04887 0.89809 31938 ft 457 kts 320°
2026-05-05 18:51 51.09837 0.83506 31926 ft 458 kts 320°
2026-05-05 18:51 51.14802 0.77165 31938 ft 458 kts 320°
2026-05-05 18:52 51.19770 0.70804 31931 ft 458 kts 320°
2026-05-05 18:52 51.24734 0.64426 31928 ft 458 kts 319°
2026-05-05 18:53 51.29703 0.58024 31946 ft 458 kts 319°
2026-05-05 18:53 51.34625 0.51671 31932 ft 457 kts 319°
2026-05-05 18:54 51.39564 0.45272 31935 ft 456 kts 319°
2026-05-05 18:54 51.44487 0.38875 31930 ft 455 kts 319°
2026-05-05 18:55 51.49350 0.32538 31941 ft 454 kts 319°
2026-05-05 18:55 51.54281 0.26094 31945 ft 452 kts 319°
2026-05-05 18:56 51.59153 0.19703 31947 ft 452 kts 318°
2026-05-05 18:56 51.63990 0.13349 31946 ft 451 kts 318°
2026-05-05 18:57 51.68852 0.06945 31952 ft 451 kts 318°
2026-05-05 18:57 51.73709 0.00525 31954 ft 451 kts 318°
2026-05-05 18:58 51.78563 -0.05911 31965 ft 451 kts 319°
2026-05-05 18:58 51.83395 -0.12338 31955 ft 449 kts 319°
2026-05-05 18:59 51.88212 -0.18758 31958 ft 448 kts 319°
2026-05-05 18:59 51.92889 -0.25010 31962 ft 446 kts 319°
2026-05-05 19:00 51.96628 -0.30020 31963 ft 445 kts 318°
2026-05-05 19:01 52.01395 -0.36428 31965 ft 444 kts 318°
2026-05-05 19:01 52.06109 -0.42780 31954 ft 438 kts 318°
2026-05-05 19:02 52.08435 -0.45918 31647 ft 432 kts 317°
2026-05-05 19:02 52.10732 -0.49022 31331 ft 425 kts 317°
2026-05-05 19:02 52.12994 -0.52084 30921 ft 421 kts 317°
2026-05-05 19:02 52.15242 -0.55132 30534 ft 418 kts 317°
2026-05-05 19:03 52.17472 -0.58159 30127 ft 415 kts 317°
2026-05-05 19:03 52.19679 -0.61160 29726 ft 412 kts 317°
2026-05-05 19:03 52.21871 -0.64144 29324 ft 409 kts 317°
2026-05-05 19:03 52.24018 -0.67070 28913 ft 406 kts 317°
2026-05-05 19:04 52.26172 -0.70011 28502 ft 403 kts 317°
2026-05-05 19:04 52.28316 -0.72942 28092 ft 400 kts 317°
2026-05-05 19:04 52.30441 -0.75850 27686 ft 397 kts 317°
2026-05-05 19:04 52.32550 -0.78741 27276 ft 394 kts 317°
2026-05-05 19:05 52.34640 -0.81608 26878 ft 391 kts 317°
2026-05-05 19:05 52.36721 -0.84468 26476 ft 388 kts 317°
2026-05-05 19:05 52.38778 -0.87299 26085 ft 385 kts 317°
2026-05-05 19:05 52.40827 -0.90120 25691 ft 382 kts 317°
2026-05-05 19:06 52.42855 -0.92916 25300 ft 380 kts 317°
2026-05-05 19:06 52.44875 -0.95704 24909 ft 377 kts 317°
2026-05-05 19:06 52.46872 -0.98466 24522 ft 374 kts 317°
2026-05-05 19:06 52.48856 -1.01211 24138 ft 372 kts 317°
2026-05-05 19:07 52.50823 -1.03939 23758 ft 369 kts 317°
2026-05-05 19:07 52.52752 -1.06616 23386 ft 366 kts 317°
2026-05-05 19:07 52.54695 -1.09316 23006 ft 364 kts 317°
2026-05-05 19:07 52.56621 -1.11996 22633 ft 361 kts 317°
2026-05-05 19:08 52.58529 -1.14654 22265 ft 359 kts 317°
2026-05-05 19:08 52.60425 -1.17298 21891 ft 356 kts 317°
2026-05-05 19:08 52.62309 -1.19928 21519 ft 354 kts 317°
2026-05-05 19:08 52.64180 -1.22543 21145 ft 351 kts 317°
2026-05-05 19:09 52.66036 -1.25138 20782 ft 349 kts 317°
2026-05-05 19:09 52.67880 -1.27721 20412 ft 347 kts 317°
2026-05-05 19:09 52.69716 -1.30293 20049 ft 345 kts 318°
2026-05-05 19:09 52.71645 -1.32660 19638 ft 347 kts 325°
2026-05-05 19:10 52.73700 -1.34770 19232 ft 348 kts 327°
2026-05-05 19:10 52.75762 -1.36785 18826 ft 349 kts 328°
2026-05-05 19:10 52.77852 -1.38826 18405 ft 349 kts 327°
2026-05-05 19:10 52.79958 -1.40909 17983 ft 347 kts 327°
2026-05-05 19:11 52.81989 -1.42947 17576 ft 346 kts 327°
2026-05-05 19:11 52.84038 -1.45021 17162 ft 345 kts 327°
2026-05-05 19:11 52.86080 -1.47103 16752 ft 343 kts 326°
2026-05-05 19:11 52.88110 -1.49180 16342 ft 342 kts 326°
2026-05-05 19:12 52.90127 -1.51249 15934 ft 341 kts 327°
2026-05-05 19:12 52.92137 -1.53314 15529 ft 339 kts 327°
2026-05-05 19:12 52.94139 -1.55373 15123 ft 337 kts 326°
2026-05-05 19:12 52.96125 -1.57418 14726 ft 336 kts 326°
2026-05-05 19:13 52.98108 -1.59462 14324 ft 335 kts 326°
2026-05-05 19:13 53.00089 -1.61505 13923 ft 333 kts 327°
2026-05-05 19:13 53.02055 -1.63535 13531 ft 332 kts 327°
2026-05-05 19:13 53.04012 -1.65560 13128 ft 331 kts 326°
2026-05-05 19:14 53.05878 -1.67752 12717 ft 327 kts 314°
2026-05-05 19:14 53.07363 -1.70596 12350 ft 324 kts 308°
2026-05-05 19:14 53.08772 -1.73443 11960 ft 323 kts 309°
2026-05-05 19:14 53.10231 -1.76327 11576 ft 321 kts 309°
2026-05-05 19:15 53.11673 -1.79146 11192 ft 319 kts 310°
2026-05-05 19:15 53.13085 -1.81894 10806 ft 313 kts 310°
2026-05-05 19:15 53.14479 -1.84603 10439 ft 303 kts 310°
2026-05-05 19:15 53.15833 -1.87234 10079 ft 294 kts 310°
2026-05-05 19:16 53.17134 -1.89767 9942 ft 277 kts 310°
2026-05-05 19:16 53.18364 -1.92167 9508 ft 275 kts 310°
2026-05-05 19:16 53.19596 -1.94568 9143 ft 272 kts 311°
2026-05-05 19:16 53.20813 -1.96932 8805 ft 266 kts 311°
2026-05-05 19:17 53.21997 -1.99265 8490 ft 261 kts 311°
2026-05-05 19:17 53.23160 -2.01578 8168 ft 258 kts 307°
2026-05-05 19:17 53.23825 -2.04307 7836 ft 255 kts 279°
2026-05-05 19:17 53.23933 -2.07211 7576 ft 246 kts 272°
2026-05-05 19:18 53.23917 -2.10023 7292 ft 240 kts 271°
2026-05-05 19:18 53.23883 -2.12759 6977 ft 231 kts 271°
2026-05-05 19:18 53.23857 -2.15424 6651 ft 227 kts 271°
2026-05-05 19:18 53.23836 -2.18021 6360 ft 221 kts 272°
2026-05-05 19:19 53.23819 -2.20549 6085 ft 215 kts 272°
2026-05-05 19:19 53.23804 -2.23006 5827 ft 208 kts 272°
2026-05-05 19:19 53.23789 -2.25368 5559 ft 199 kts 272°
2026-05-05 19:19 53.23776 -2.27636 5363 ft 193 kts 273°
2026-05-05 19:20 53.23764 -2.29868 5135 ft 191 kts 274°
2026-05-05 19:20 53.23753 -2.32028 4888 ft 185 kts 273°
2026-05-05 19:20 53.23486 -2.34078 4657 ft 178 kts 250°
2026-05-05 19:20 53.22994 -2.36005 4485 ft 184 kts 250°
2026-05-05 19:21 53.22507 -2.37948 4243 ft 177 kts 251°
2026-05-05 19:21 53.22022 -2.39823 3842 ft 175 kts 250°
2026-05-05 19:21 53.21535 -2.41692 3417 ft 174 kts 250°
2026-05-05 19:21 53.21036 -2.43544 3046 ft 175 kts 250°
2026-05-05 19:22 53.20547 -2.45468 3052 ft 185 kts 250°
2026-05-05 19:22 53.20046 -2.47410 2995 ft 178 kts 255°
2026-05-05 19:22 53.20023 -2.49338 3020 ft 163 kts 298°
2026-05-05 19:22 53.20782 -2.50638 2999 ft 155 kts 343°
2026-05-05 19:23 53.21832 -2.50841 3011 ft 154 kts
2026-05-05 19:23 53.22544 -2.50851 3006 ft 153 kts
2026-05-05 19:23 53.23926 -2.50539 2979 ft 153 kts 33°
2026-05-05 19:23 53.24666 -2.49301 3004 ft 152 kts 43°
2026-05-05 19:24 53.25161 -2.48436 3011 ft 152 kts 45°
2026-05-05 19:24 53.26089 -2.46650 2899 ft 155 kts 48°
2026-05-05 19:24 53.26771 -2.45263 2689 ft 153 kts 49°
2026-05-05 19:24 53.27222 -2.44334 2558 ft 153 kts 49°
2026-05-05 19:25 53.27887 -2.42961 2354 ft 152 kts 49°
2026-05-05 19:25 53.28550 -2.41590 2157 ft 152 kts 50°
2026-05-05 19:25 53.29197 -2.40249 1967 ft 150 kts 50°
2026-05-05 19:25 53.29831 -2.38939 1759 ft 141 kts 50°
2026-05-05 19:26 53.30439 -2.37681 1575 ft 138 kts 50°
2026-05-05 19:26 53.31045 -2.36428 1405 ft 139 kts 51°
2026-05-05 19:26 53.31654 -2.35171 1219 ft 139 kts 51°
2026-05-05 19:26 53.32265 -2.33913 1039 ft 140 kts 51°
2026-05-05 19:27 53.32877 -2.32641 841 ft 140 kts 51°
2026-05-05 19:27 53.33487 -2.31376 645 ft 140 kts 51°
2026-05-05 19:27 53.34100 -2.30111 466 ft 141 kts 51°
2026-05-05 19:27 53.34723 -2.28839 292 ft 141 kts 51°
2026-05-05 19:28 53.35305 -2.27639 240 ft 111 kts 51°
2026-05-05 19:28 53.35656 -2.26915 261 ft 45 kts 51°
2026-05-05 19:28 53.35781 -2.26677 268 ft 15 kts 20°
2026-05-05 19:28 53.35880 -2.26696 261 ft 0 kts 349°
2026-05-05 19:29 53.35882 -2.26696 261 ft 2 kts 349°
2026-05-05 19:29 53.35932 -2.26712 255 ft 12 kts 350°
2026-05-05 19:29 53.35957 -2.26702 255 ft 1 kts 52°
2026-05-05 19:30 53.35965 -2.26684 255 ft 5 kts 53°
2026-05-05 19:30 53.36003 -2.26604 255 ft 11 kts 50°
2026-05-05 19:30 53.36071 -2.26597 254 ft 10 kts 358°
2026-05-05 19:30 53.36114 -2.26558 254 ft 0 kts 15°
2026-05-05 19:31 53.36116 -2.26560 254 ft 1 kts 351°
2026-05-05 19:31 53.36126 -2.26576 254 ft 3 kts 320°
2026-05-05 19:31 53.36146 -2.26604 254 ft 5 kts 320°
2026-05-05 19:31 53.36162 -2.26626 254 ft 0 kts 321°
2026-05-05 19:32 53.36165 -2.26631 254 ft 0 kts 321°